GFSSGP_850_spd_090.txt.gz
Wind_Speed
5 9 7 4 3 4 2 7 3 6 4 3 7 9 9 3 3 3 9 9 6 10 15 23 23 23 21 20 19 17 15 15 15 15 14 13 14 15 16 13 16 19 19 18 15 16 16 16 17
10 8 8 3 3 3 4 5 7 7 5 16 17 10 4 3 2 7 8 10 10 11 11 21 23 22 21 19 17 16 15 15 14 15 15 13 14 15 17 14 17 21 20 17 15 17 17 18 18
10 9 6 4 4 5 5 4 9 12 17 19 8 8 3 4 6 12 12 10 14 12 11 18 21 21 19 18 16 15 15 16 15 15 16 16 16 16 17 14 17 21 20 19 18 18 17 19 18
8 5 3 2 7 5 5 5 4 12 18 6 16 7 5 7 8 11 9 13 13 15 12 12 21 20 17 16 14 12 13 15 17 18 18 18 18 17 17 16 17 18 20 20 21 19 18 18 16
7 4 1 2 5 5 5 9 14 10 13 10 21 6 6 11 9 13 12 14 13 15 15 14 17 17 17 15 13 12 11 13 16 19 21 21 20 19 19 18 18 22 22 23 18 19 17 17 16
5 2 1 3 4 5 6 16 6 6 20 15 15 6 4 10 11 14 15 16 14 15 19 17 15 14 14 12 9 9 11 11 15 19 22 23 22 21 21 22 22 22 22 22 20 19 17 16 16
5 3 3 3 3 3 3 8 4 5 9 11 19 5 6 15 15 14 13 13 17 17 18 22 20 21 21 19 16 14 12 11 11 18 22 23 23 23 23 24 23 22 25 21 20 18 17 16 15
2 3 2 3 3 6 7 13 13 12 12 19 14 4 13 16 14 14 14 13 14 15 18 20 22 23 21 20 18 15 14 11 8 17 20 22 24 24 24 24 24 22 21 21 21 18 17 16 14
2 1 3 4 3 4 10 8 14 14 12 20 10 15 19 14 16 18 14 13 14 15 17 19 22 23 23 21 17 16 14 11 10 15 19 23 25 25 27 25 24 25 23 22 21 18 16 15 14
4 3 7 5 2 4 13 14 18 13 19 18 14 16 18 19 16 19 17 13 12 15 17 20 21 21 24 22 16 13 13 2 8 10 23 26 29 30 30 27 26 27 26 23 21 18 16 15 14
3 4 4 5 17 18 12 20 20 12 13 13 25 28 25 22 17 22 18 16 14 15 17 18 19 19 19 19 18 11 6 7 14 13 20 31 33 35 33 30 30 30 28 26 23 20 18 15 14
4 8 8 7 17 17 10 17 17 21 20 24 25 26 25 19 12 20 22 18 15 15 14 16 19 22 22 18 26 35 27 28 25 24 24 35 38 40 39 34 34 32 30 27 24 21 18 16 15
4 4 8 11 14 17 23 19 13 24 31 26 24 32 28 21 15 17 20 20 19 17 16 17 18 20 20 21 25 27 31 40 38 22 29 32 39 43 33 35 35 33 30 27 24 21 19 17 16
5 8 11 9 19 18 14 20 12 17 29 38 38 36 33 25 21 15 15 15 16 17 20 19 19 21 20 18 21 23 22 37 39 31 31 37 36 36 29 37 35 31 30 27 24 22 20 18 16
8 7 8 14 15 7 17 15 12 28 31 37 39 31 31 32 26 24 18 24 16 14 13 13 18 21 19 18 19 20 17 31 37 32 38 45 39 35 25 31 33 32 30 27 24 21 19 18 16
4 4 4 5 1 8 6 14 11 23 26 29 32 32 26 35 31 26 20 17 16 15 16 15 17 23 20 22 20 21 23 21 28 35 39 46 41 38 28 31 31 31 30 28 25 22 21 20 18
2 4 5 6 7 5 6 10 6 19 26 26 28 30 30 25 30 29 20 19 20 16 17 17 20 21 22 20 17 24 25 27 17 30 39 41 40 34 35 29 29 31 30 28 26 24 21 20 19
6 6 6 7 5 10 13 20 20 25 17 23 23 23 27 27 26 26 22 17 19 17 18 16 18 21 24 24 23 23 26 21 19 21 28 36 40 37 34 30 29 29 30 27 25 24 23 23 20
3 4 13 17 13 14 16 15 18 19 18 16 23 24 18 24 22 21 15 12 13 14 18 16 16 16 22 26 27 23 24 27 22 28 32 31 34 36 35 31 30 30 29 29 27 25 24 24 22
8 14 19 17 13 5 10 17 20 14 8 11 13 16 13 14 11 10 8 8 10 15 20 17 17 19 19 18 22 26 25 30 29 34 35 31 31 33 35 35 33 30 31 29 27 26 25 24 22
11 13 16 13 13 11 12 11 6 3 2 9 9 9 8 6 10 10 11 9 11 15 15 15 17 18 20 22 23 25 25 29 31 29 42 36 34 35 35 37 36 34 31 31 29 28 27 25 24
12 4 12 8 7 3 4 4 4 5 4 6 14 16 10 3 4 4 6 5 7 6 10 14 18 14 19 21 22 30 30 26 24 29 31 37 35 32 32 36 33 32 30 29 28 28 24 23 22
7 8 9 5 4 3 4 4 4 5 3 6 10 13 9 5 3 2 3 10 7 3 2 4 10 2 10 22 20 15 30 23 19 22 25 21 22 32 29 28 26 26 26 26 24 24 25 25 25
10 9 3 4 2 3 4 4 2 4 5 5 8 10 9 7 3 7 9 11 7 5 6 6 4 3 11 19 10 4 11 11 16 20 21 25 21 23 25 24 20 18 20 23 22 23 25 28 28
5 1 2 2 1 2 2 4 0 7 7 5 2 7 10 12 10 10 16 14 13 13 11 9 8 12 7 6 6 5 3 7 3 3 6 11 9 13 11 16 22 26 26 23 25 27 26 28 31
4 3 2 3 1 1 2 1 1 7 5 4 6 8 12 17 16 17 19 18 13 15 14 12 12 7 5 6 5 8 3 3 6 8 9 7 13 15 16 18 17 18 27 34 31 29 30 27 27
1 3 3 2 1 3 1 1 2 4 6 9 11 13 14 11 13 17 19 22 17 16 15 13 11 10 10 9 8 6 3 9 6 3 4 12 11 13 16 20 19 25 20 21 23 23 25 23 23
6 2 2 2 1 2 3 2 4 2 3 7 8 11 9 14 15 19 19 19 17 15 15 13 13 12 11 9 9 8 6 5 3 9 14 16 16 14 20 19 17 15 18 20 24 25 26 27 28
1 4 4 1 3 1 2 3 3 1 3 5 5 7 10 14 15 17 17 17 14 13 13 13 13 11 11 10 10 8 8 6 4 0 3 5 8 11 14 14 14 14 15 18 21 23 23 25 25
3 5 3 3 1 2 3 2 3 4 7 8 6 7 11 14 13 12 11 10 10 12 13 13 12 11 11 10 10 10 9 8 7 6 6 7 8 10 11 13 14 14 15 17 18 19 20 22 23

GFSSGP_850_spd_096.txt.gz
Wind_Speed
9 13 11 8 4 5 4 5 2 1 1 1 11 5 5 5 3 4 5 5 4 4 11 17 21 19 19 19 18 16 15 14 12 11 12 13 12 11 10 9 9 16 14 12 11 12 13 13 13
12 15 10 5 4 2 5 3 4 2 7 12 6 7 1 4 8 9 6 8 6 5 13 19 21 20 19 19 17 16 15 14 12 11 11 11 11 11 12 11 12 14 14 10 9 12 13 13 13
15 14 5 4 3 5 5 4 1 5 9 8 5 6 4 3 8 6 5 4 6 8 13 17 20 20 18 17 16 16 15 14 13 12 11 11 11 12 13 13 14 14 15 10 10 13 14 14 14
10 7 5 4 6 6 4 1 4 6 4 10 10 3 7 6 9 8 10 5 7 9 10 15 18 19 18 17 17 16 15 14 13 13 12 13 12 11 17 16 17 17 16 12 12 13 14 14 13
10 5 4 2 4 5 4 4 3 3 3 7 7 7 9 8 12 10 9 9 9 11 12 14 16 17 17 17 16 15 14 14 15 15 15 15 14 14 14 16 20 19 17 15 15 15 15 14 12
5 3 3 3 4 4 5 6 4 1 1 4 5 9 5 12 15 9 8 7 12 10 13 15 15 16 17 17 16 16 16 17 17 16 17 17 16 17 15 17 20 20 19 16 19 17 16 14 11
5 3 4 2 3 2 2 1 0 1 2 1 7 4 6 9 19 8 7 8 11 14 15 17 18 20 23 23 22 21 19 18 17 18 18 18 18 18 19 17 19 21 22 17 21 19 18 15 12
4 3 3 3 3 4 4 4 3 5 2 8 4 3 5 17 18 16 9 9 10 13 15 19 20 22 23 22 21 19 19 17 17 16 18 19 19 19 20 18 20 20 22 21 21 20 19 17 14
4 4 2 3 5 2 3 7 4 7 11 5 4 5 13 18 18 17 12 11 12 15 16 19 19 21 20 21 22 21 18 18 17 14 17 19 19 20 20 20 23 22 22 23 20 23 21 19 16
4 3 6 2 2 2 8 4 12 4 12 12 21 16 16 19 18 18 16 14 14 16 19 21 20 20 20 17 18 19 19 18 16 14 13 16 19 19 21 22 25 25 20 24 24 21 22 21 19
2 4 2 2 5 7 5 11 8 5 5 11 7 17 23 23 22 18 16 16 17 16 19 21 21 22 19 18 14 15 18 17 16 10 5 10 14 18 21 24 26 27 23 24 24 24 24 23 22
1 1 2 3 10 9 6 9 8 18 17 25 28 22 27 28 28 24 21 18 16 19 17 17 17 15 18 16 15 15 16 17 16 11 13 15 12 14 21 26 30 31 28 27 27 28 26 26 23
2 3 7 11 15 18 18 13 13 20 27 28 29 25 23 29 32 32 28 24 18 17 20 18 18 17 19 19 18 19 18 19 22 23 24 23 28 22 17 26 32 34 33 31 32 31 29 27 25
3 5 13 9 20 18 14 14 8 4 23 29 33 34 31 28 26 31 33 28 20 15 18 20 21 21 21 20 21 22 24 26 29 29 29 31 31 29 29 24 27 37 38 36 36 34 30 28 27
5 5 6 5 5 5 8 5 6 15 16 20 22 25 27 30 32 32 32 34 26 18 16 17 21 23 23 24 24 24 24 25 27 27 26 30 38 36 28 32 27 28 42 42 36 36 32 30 29
4 3 4 4 4 4 7 8 9 13 9 16 27 34 34 34 32 27 29 34 31 24 20 20 24 23 24 24 23 22 23 24 26 28 27 27 33 40 35 34 36 33 20 48 38 33 33 32 31
5 2 3 7 3 2 1 12 5 15 27 27 30 31 33 33 26 23 25 31 33 27 22 21 22 21 21 22 22 23 24 27 26 26 25 28 30 34 39 40 40 40 33 39 46 37 39 36 34
1 3 4 5 4 5 11 23 22 27 21 25 28 32 34 29 27 23 22 27 30 28 23 22 22 20 19 21 22 25 28 30 30 28 27 26 30 34 36 40 40 44 42 39 44 43 36 35 36
4 1 5 10 14 11 12 18 20 22 18 17 26 28 24 25 25 24 26 26 23 23 24 22 20 18 21 21 23 27 30 31 30 31 31 29 31 33 35 38 39 41 45 40 42 43 39 39 36
1 8 11 12 8 4 10 19 17 9 6 5 10 15 19 22 15 10 12 20 18 18 12 15 18 20 20 21 23 26 27 28 30 31 29 28 30 28 34 36 40 38 37 37 48 45 40 38 40
4 8 8 9 10 10 9 7 5 3 4 12 14 15 16 17 13 6 3 5 17 16 15 16 17 18 19 21 22 24 26 30 31 32 31 30 29 31 26 37 43 46 44 36 38 36 45 45 41
8 7 12 14 8 3 3 5 5 4 3 6 13 14 17 14 11 8 7 8 5 8 8 13 16 19 21 23 24 25 26 27 30 33 35 26 28 29 34 33 32 33 34 33 34 38 37 40 39
6 2 8 12 13 6 4 3 5 4 6 9 8 11 12 11 9 8 7 7 6 3 1 4 3 7 14 15 15 17 18 19 30 28 23 24 31 34 33 39 32 28 31 33 39 41 40 44 43
6 9 12 12 4 3 4 4 4 2 5 7 5 10 12 11 10 8 7 4 2 2 2 1 5 3 2 1 6 12 11 7 16 5 15 13 20 26 32 22 24 22 24 22 29 36 35 37 40
6 2 3 4 1 4 3 4 5 5 7 8 5 8 10 10 9 11 11 13 11 8 9 8 9 11 8 9 10 8 7 5 9 12 15 14 6 26 26 23 18 28 27 25 26 26 30 30 33
4 2 2 4 2 3 4 3 2 5 6 5 6 7 9 13 12 13 16 15 17 17 16 17 16 15 12 12 11 9 11 11 7 6 10 13 8 6 8 17 18 19 15 19 19 26 32 31 30
2 3 2 4 4 2 2 3 2 2 4 7 7 7 10 11 13 13 15 17 19 21 21 21 18 18 17 16 15 15 9 7 8 8 7 7 7 9 4 9 8 12 14 16 24 34 32 32 33
3 3 2 2 3 3 2 2 4 6 3 4 4 6 9 12 15 16 21 22 21 20 18 17 17 16 15 15 14 14 12 11 11 8 6 5 4 2 3 3 5 8 13 12 14 21 25 25 27
4 2 3 2 2 2 3 2 6 5 2 3 5 6 11 13 17 19 19 15 12 11 11 12 10 9 10 12 12 11 11 10 11 11 11 11 11 9 7 7 8 9 10 13 13 17 13 15 19
0 1 2 2 3 1 1 3 6 4 1 6 3 7 14 13 12 10 8 8 9 11 11 12 12 12 12 12 12 12 11 11 11 11 11 10 10 9 9 9 9 10 11 12 14 17 18 21 23

GFSSGP_850_spd_099.txt.gz
Wind_Speed
10 12 12 8 3 2 2 3 1 2 2 2 8 5 4 4 3 1 8 3 4 1 9 16 19 19 18 17 15 15 13 12 11 10 11 11 11 10 9 8 9 14 14 12 13 12 13 12 13
14 14 8 4 3 2 3 2 5 2 4 7 2 3 1 1 5 8 6 5 8 5 7 15 19 19 18 18 16 15 14 13 11 10 10 10 11 10 9 9 10 15 14 11 9 11 13 13 13
16 14 4 3 2 5 2 3 2 2 4 6 2 1 2 6 7 7 8 9 6 6 8 15 19 18 17 16 16 15 14 13 12 11 9 9 11 10 11 10 13 14 15 10 7 11 12 13 13
10 7 5 2 4 3 2 5 1 3 2 6 3 0 3 7 14 14 12 7 4 5 10 13 17 18 17 16 16 15 15 14 13 12 11 10 11 10 12 13 14 16 14 11 9 12 13 14 13
8 5 3 2 4 3 2 4 2 0 1 2 2 2 3 1 14 14 9 5 4 6 10 13 14 17 17 17 16 15 14 15 14 14 13 12 13 11 12 16 16 16 15 13 11 13 14 14 12
4 3 2 2 4 3 4 5 3 2 2 2 2 5 3 3 12 14 6 4 5 7 10 12 13 14 17 17 16 17 17 17 17 16 15 14 14 14 13 15 18 17 16 15 13 14 15 14 12
5 2 2 2 2 3 1 5 2 0 1 1 5 4 3 5 11 16 14 5 7 10 12 14 15 16 18 19 21 21 21 20 18 17 16 16 16 16 16 15 19 19 18 17 16 16 17 15 13
5 4 3 2 2 2 4 4 2 3 2 4 2 3 4 8 13 13 15 10 8 11 15 16 17 18 18 20 20 18 18 17 15 16 17 18 18 17 17 17 16 19 19 18 16 19 19 17 14
5 3 2 3 5 1 2 5 2 4 8 8 7 9 13 20 19 16 13 9 9 11 14 18 19 18 19 20 20 19 18 18 16 15 15 17 19 19 18 19 17 20 19 18 17 20 20 19 16
4 2 5 2 2 2 6 3 8 5 7 11 19 20 21 23 23 22 18 15 11 9 14 17 20 20 20 19 18 18 16 18 16 15 14 14 18 21 20 20 19 21 21 20 20 19 20 21 20
2 3 4 2 1 5 5 11 5 5 5 10 9 16 24 26 25 26 22 17 15 13 13 17 21 22 21 19 18 16 15 16 16 14 10 6 10 15 20 21 20 22 23 22 20 22 23 24 23
3 2 3 2 2 4 4 7 8 16 15 21 23 23 26 27 28 27 28 24 19 16 14 15 17 21 20 19 18 16 15 16 16 14 11 8 9 10 14 19 22 24 25 24 21 27 27 25 25
2 1 3 4 14 14 15 15 13 18 29 26 24 24 22 25 32 32 31 31 27 20 16 17 17 18 20 19 17 18 18 18 19 19 20 15 15 19 18 18 22 25 28 29 26 26 29 29 27
0 3 9 9 12 12 7 6 3 8 15 22 22 25 21 20 21 22 23 29 30 26 20 15 20 19 19 20 20 20 21 21 22 23 25 23 25 27 26 24 24 28 31 31 32 30 32 32 30
2 4 6 3 3 4 9 4 7 9 15 14 15 17 29 36 27 28 29 30 30 30 23 19 17 22 24 24 24 24 25 25 26 26 28 28 26 27 33 31 29 30 34 36 36 35 34 34 31
4 3 4 2 6 3 5 7 5 16 14 19 30 32 30 29 27 30 29 27 27 31 28 22 19 19 23 25 26 25 26 27 27 27 27 26 24 24 28 33 37 33 33 38 40 39 37 37 35
6 1 2 7 3 2 1 11 12 20 27 26 25 28 31 32 32 26 22 25 24 29 30 27 23 21 23 26 26 25 23 25 26 28 27 26 25 24 29 31 34 37 36 38 37 41 41 40 37
1 2 3 5 2 2 13 19 17 22 19 22 22 24 24 23 25 25 25 24 27 28 28 27 25 22 22 22 21 22 24 26 28 29 28 27 28 27 29 31 32 32 36 39 42 40 37 44 46
5 1 5 5 9 6 9 15 17 22 12 10 11 12 14 19 22 17 18 23 28 26 25 24 23 20 20 20 21 23 25 26 28 29 29 30 29 30 31 32 36 37 40 41 43 44 42 50 48
2 4 6 8 5 4 10 18 16 6 2 5 10 12 14 17 20 19 16 11 10 19 19 19 19 17 18 19 21 21 23 25 27 28 29 30 28 27 28 29 32 31 36 42 45 43 45 49 51
3 3 2 6 8 8 8 8 3 3 2 10 11 10 12 13 16 16 13 8 3 2 12 16 16 15 18 19 21 24 24 26 27 27 30 30 29 30 30 29 31 31 42 44 43 44 47 49 49
2 5 9 9 7 4 3 5 4 2 5 4 9 11 14 13 12 12 11 8 3 5 10 16 16 14 16 20 23 25 25 23 23 26 31 31 32 31 31 30 29 30 34 45 46 43 51 53 53
6 5 6 9 9 7 4 4 4 2 3 9 7 11 10 10 11 12 9 7 7 5 2 3 3 7 13 14 16 17 17 16 14 15 19 18 20 21 27 31 29 30 32 25 31 41 40 46 43
6 5 9 11 5 4 3 3 3 2 5 8 6 8 9 10 10 9 7 4 4 2 1 0 2 4 6 4 9 10 13 11 9 5 10 15 13 20 22 24 24 27 29 23 25 22 29 39 37
5 3 3 2 2 5 5 4 5 3 6 7 4 6 9 10 10 11 13 14 11 8 6 6 7 8 7 4 7 10 10 6 0 4 5 9 12 6 2 13 13 14 12 15 14 20 38 43 39
4 2 1 3 2 3 5 4 2 2 5 6 7 6 7 9 10 12 15 19 20 20 17 18 17 17 16 13 12 8 10 7 6 8 8 12 12 12 9 6 7 3 8 19 25 17 16 23 33
3 2 2 3 3 3 2 2 3 1 2 8 9 8 9 11 13 14 17 20 23 23 23 21 22 23 21 20 16 15 14 15 13 11 10 10 10 6 8 7 1 1 2 5 7 12 15 24 35
2 2 1 1 3 4 2 2 4 7 5 3 4 7 10 10 14 15 18 19 19 19 19 20 19 13 14 12 13 12 11 11 12 11 11 9 7 5 6 8 6 5 7 9 9 12 12 11 29
3 2 2 2 2 2 4 1 5 5 4 4 2 7 9 12 15 14 14 13 12 11 9 8 8 9 10 13 13 12 13 12 11 12 13 13 12 11 9 6 6 7 8 9 12 10 12 13 11
2 3 3 2 2 2 1 3 4 3 4 4 6 10 13 10 8 8 7 7 8 10 10 11 10 11 12 13 12 12 12 12 12 13 13 12 12 11 11 9 9 9 10 11 9 9 12 15 18

GFSSGP_850_spd_102.txt.gz
Wind_Speed
10 11 12 7 4 5 5 5 2 6 5 5 0 4 1 3 5 3 5 4 2 2 9 14 17 16 15 14 14 14 13 12 11 9 10 9 9 9 7 6 8 10 10 11 11 12 12 11 11
13 14 9 4 4 7 5 4 7 6 3 2 2 2 4 4 3 3 2 9 6 5 8 12 17 17 17 15 14 14 13 12 11 10 9 10 10 11 9 8 9 13 12 11 11 12 12 10 11
16 15 7 3 4 7 1 4 7 5 4 2 4 2 1 2 3 6 8 12 6 3 7 11 16 18 18 17 16 14 14 12 11 10 9 9 10 9 9 10 11 14 14 11 6 10 9 12 11
9 6 1 5 7 2 3 7 5 4 2 2 1 4 3 5 5 13 9 7 6 3 6 11 15 16 16 16 15 15 14 13 13 11 9 7 10 7 10 11 12 15 15 11 7 9 10 12 11
9 3 4 4 4 1 2 4 1 2 1 1 3 3 2 1 8 12 10 8 6 5 8 10 13 15 15 15 15 15 14 14 13 12 11 11 12 10 9 12 13 15 15 12 9 10 11 13 12
3 1 4 6 3 2 1 2 3 4 1 1 2 5 2 5 7 11 11 7 7 6 7 10 12 13 15 15 15 15 15 15 15 14 13 13 13 13 12 13 16 15 15 14 11 10 12 13 12
2 3 2 2 3 3 3 2 1 2 2 2 6 4 2 2 8 11 12 9 6 8 10 10 11 13 14 17 18 19 18 17 14 14 15 15 15 14 14 13 14 16 15 15 13 12 13 15 13
1 2 4 3 3 3 2 2 1 2 2 6 2 3 4 5 13 14 13 12 8 8 12 13 14 14 14 17 18 18 17 16 16 16 17 16 16 17 15 16 16 17 17 17 15 14 16 17 15
2 3 3 2 4 4 2 1 1 2 7 7 7 10 13 20 21 21 19 14 9 7 10 15 17 16 15 15 16 16 17 17 16 16 15 15 17 16 18 18 18 16 18 19 17 15 17 18 17
3 3 2 2 2 1 1 3 6 6 8 14 16 17 16 16 19 22 23 21 16 10 8 13 18 20 20 19 18 18 17 17 17 15 15 15 14 15 16 17 18 18 18 20 16 16 17 18 16
1 0 3 2 0 3 5 10 5 8 9 11 13 18 18 20 20 22 24 23 22 18 13 11 15 20 22 22 20 18 16 14 17 15 15 13 11 12 16 15 19 21 20 20 20 19 20 20 18
3 3 1 1 1 4 8 10 11 15 23 20 20 21 22 22 21 19 22 25 27 24 19 16 15 18 23 23 22 21 19 18 18 17 16 14 13 11 10 12 16 19 20 24 22 19 19 21 21
2 3 3 5 6 11 12 16 17 25 25 21 19 19 20 21 23 23 21 25 27 28 26 20 19 18 20 23 23 22 21 18 19 21 18 18 16 13 14 16 15 17 21 23 27 26 21 23 23
3 2 5 6 6 7 7 10 5 8 5 13 15 15 16 16 17 22 24 24 23 27 29 25 22 19 21 22 24 24 23 18 19 22 22 21 21 19 19 21 22 23 20 22 25 27 24 28 25
2 3 3 2 1 1 7 9 10 9 8 12 14 19 23 25 22 23 22 24 24 25 28 29 25 22 23 22 24 26 26 24 23 23 26 26 28 28 27 27 28 30 30 26 27 28 29 34 33
0 1 2 3 2 1 4 6 3 8 17 20 22 23 22 20 22 21 22 25 26 27 28 27 27 26 24 25 25 26 26 26 26 26 28 28 30 30 28 27 27 27 28 33 34 34 36 38 38
2 1 3 1 2 2 2 11 5 17 17 20 20 18 18 20 17 17 18 21 22 24 24 27 28 28 24 24 25 28 27 27 27 29 30 31 28 28 27 26 26 25 30 34 36 36 40 40 42
3 0 3 5 2 7 11 19 15 16 14 12 11 12 12 13 15 16 17 18 21 25 28 29 28 27 25 25 25 27 27 26 27 27 28 28 28 29 29 27 29 25 24 27 32 36 36 39 42
6 1 4 7 3 7 6 16 17 14 6 8 10 11 12 13 13 14 16 17 19 21 27 27 27 25 23 24 25 24 24 23 24 25 27 28 31 32 32 31 32 31 28 27 28 31 37 39 40
3 3 5 6 4 7 13 19 15 4 1 6 10 10 14 15 15 14 17 18 15 12 11 15 18 20 19 21 21 19 18 19 21 23 26 28 30 32 31 31 32 31 31 30 32 37 39 40 40
6 5 2 3 8 6 11 9 5 4 4 2 8 8 11 14 17 16 15 15 12 8 3 3 10 15 19 18 18 17 19 22 25 25 27 30 31 32 32 33 34 34 33 35 36 35 39 42 44
3 5 3 5 8 5 5 6 6 3 3 3 10 11 12 14 15 15 15 13 13 9 2 2 4 13 16 21 15 15 17 16 17 23 24 26 28 30 33 34 36 36 35 36 36 37 41 47 46
1 2 5 8 8 8 3 4 3 2 2 6 10 11 11 12 13 15 14 13 10 8 9 7 2 5 12 7 11 13 15 16 15 17 16 10 12 20 23 28 31 34 35 34 34 29 43 46 44
3 5 6 3 1 3 4 6 2 3 7 10 9 7 10 11 11 12 11 9 9 7 6 8 6 6 5 5 8 10 9 12 16 14 10 10 10 13 16 27 28 30 33 33 33 34 32 41 47
3 3 3 1 2 4 6 5 6 3 8 6 7 9 10 10 11 12 14 15 14 11 11 8 6 4 5 3 5 3 4 8 12 9 3 4 3 8 12 11 16 23 25 27 30 32 33 31 37
1 1 2 4 3 6 4 5 2 3 4 7 7 8 7 9 8 11 13 16 18 17 19 20 18 17 17 17 15 15 5 3 9 5 5 6 8 8 10 9 8 3 2 6 9 14 18 31 31
4 3 1 3 5 4 1 2 4 3 5 6 7 7 7 8 8 11 12 16 17 18 18 21 23 20 16 15 15 14 15 14 14 14 11 10 8 7 7 11 14 11 6 2 5 7 10 15 18
3 4 2 3 3 4 2 2 4 5 5 4 2 2 3 6 8 9 10 11 10 12 14 12 12 12 11 10 10 8 8 11 12 10 11 11 12 11 10 7 10 13 12 10 7 3 3 9 9
5 3 4 3 3 3 5 2 1 3 4 2 2 4 6 7 8 10 9 7 6 6 7 6 7 8 8 10 11 10 9 7 7 8 11 12 13 13 12 11 11 11 12 13 14 14 12 11 11
4 3 2 3 2 3 3 2 3 2 3 5 6 8 11 8 5 3 2 2 3 4 5 5 7 7 9 10 10 10 10 10 10 11 13 13 14 15 15 15 14 13 13 13 12 12 12 12 13